Weather History for KACB - March, 2013

Change the Weather History Date:

Tuesday, March 26, 2013

  Actual Average (KTVC) Record (KTVC)
Temperature  
Mean Temperature 35 °F 34 °F  
Max Temperature 41 °F 44 °F 75 °F (1925)
Min Temperature 29 °F 25 °F -7 °F (1923)
Degree Days  
Heating Degree Days 30 30  
Month to date heating degree days 916  
Since 1 July heating degree days 6256  
Cooling Degree Days 0 0  
Month to date cooling degree days 0  
Year to date cooling degree days 0  
Moisture  
Dew Point 27 °F    
Average Humidity 75    
Maximum Humidity 96    
Minimum Humidity 47    
Precipitation  
Precipitation 0.00 in 0.07 in 0.54 in (1948)
Month to date precipitation 1.52  
Year to date precipitation 5.84  
Sea Level Pressure  
Sea Level Pressure 30.06 in    
Wind  
Wind Speed 4 mph (NW)    
Max Wind Speed 13 mph    
Max Gust Speed 21 mph    
Visibility 10 miles    
Events      
T = Trace of Precipitation, MM = Missing Value Source: NWS Daily Summary

Daily Weather History Graph

Daily Weather History Graph

Search for Another Location

Airport or City:

Trip Planner

Search our weather history database for the weather conditions in past years. The results will help you decide how hot, cold, wet, or windy it might be!

Date:

Astronomy

Mar. 26, 2013 Rise Set
Actual Time 7:32 AM EDT 8:01 PM EDT
Civil Twilight 7:02 AM EDT 8:30 PM EDT
Nautical Twilight 6:28 AM EDT 9:05 PM EDT
Astronomical Twilight 5:52 AM EDT 9:41 PM EDT
Moon 7:38 PM EDT (3/26) 6:49 AM EDT (3/26)
Length of Visible Light 13h 27m
Length of Day
12h 29m
Waxing Gibbous, 99% of the Moon is Illuminated
Mar 26
Waxing Gibbous
Mar 27
Full
Apr 3
Last Quarter
Apr 10
New
Apr 18
First Quarter

Hourly Weather History & Observations

Time (EDT) Temp. Windchill Dew Point Humidity Pressure Visibility Wind Dir Wind Speed Gust Speed Precip Events Conditions
12:14 AM 33.8 °F 29.6 °F 27.9 °F 79% 30.00 in 7.0 mi NNW 4.6 mph - N/A   Overcast
12:35 AM 33.3 °F 30.2 °F 28.4 °F 82% 30.00 in 10.0 mi NW 3.5 mph - N/A   Overcast
12:54 AM 33.1 °F - 28.2 °F 82% 30.00 in 10.0 mi Calm Calm - N/A   Overcast
1:15 AM 32.7 °F - 29.3 °F 87% 30.00 in 3.0 mi Calm Calm - N/A   Overcast
1:35 AM 32.9 °F - 29.1 °F 86% 30.00 in 10.0 mi Calm Calm - N/A   Overcast
1:54 AM 32.5 °F - 28.8 °F 86% 30.00 in 10.0 mi Calm Calm - N/A   Overcast
2:15 AM 32.4 °F - 28.4 °F 85% 30.00 in 10.0 mi Calm Calm - N/A   Overcast
2:34 AM 31.5 °F - 28.8 °F 90% 30.00 in 10.0 mi Calm Calm - N/A   Overcast
2:55 AM 30.9 °F 27.5 °F 28.9 °F 92% 30.00 in 10.0 mi South 3.5 mph - N/A   Overcast
3:14 AM 30.6 °F 24.7 °F 28.8 °F 93% 30.00 in 10.0 mi South 5.8 mph - N/A   Overcast
3:34 AM 30.9 °F 25.2 °F 29.1 °F 93% 30.00 in 10.0 mi South 5.8 mph - N/A   Overcast
3:55 AM 31.1 °F 26.4 °F 29.1 °F 92% 29.99 in 10.0 mi South 4.6 mph - N/A   Overcast
4:14 AM 30.6 °F - 29.1 °F 94% 29.99 in 10.0 mi Calm Calm - N/A   Overcast
4:34 AM 29.7 °F 26.1 °F 28.2 °F 94% 29.99 in 10.0 mi South 3.5 mph - N/A   Overcast
4:55 AM 29.7 °F 24.7 °F 28.2 °F 94% 29.99 in 10.0 mi South 4.6 mph - N/A   Overcast
5:14 AM 29.5 °F - 28.0 °F 94% 30.00 in 10.0 mi Calm Calm - N/A   Overcast
5:35 AM 29.8 °F 26.3 °F 28.6 °F 95% 30.00 in 10.0 mi South 3.5 mph - N/A   Overcast
5:54 AM 29.8 °F - 28.8 °F 96% 30.01 in 10.0 mi Calm Calm - N/A   Overcast
6:14 AM 30.2 °F 25.4 °F 29.1 °F 96% 30.01 in 10.0 mi SSW 4.6 mph - N/A   Overcast
6:35 AM 29.3 °F - 28.4 °F 96% 30.01 in 10.0 mi Calm Calm - N/A   Overcast
6:54 AM 29.3 °F - 28.2 °F 96% 30.01 in 10.0 mi Calm Calm - N/A   Overcast
7:15 AM 29.5 °F 25.9 °F 28.6 °F 96% 30.02 in 10.0 mi SSW 3.5 mph - N/A   Overcast
7:35 AM 29.5 °F - 28.6 °F 96% 30.02 in 10.0 mi Calm Calm - N/A   Overcast
7:54 AM 29.8 °F 26.3 °F 28.9 °F 96% 30.03 in 10.0 mi South 3.5 mph - N/A   Overcast
8:15 AM 30.2 °F - 29.1 °F 96% 30.04 in 10.0 mi Calm Calm - N/A   Overcast
8:34 AM 30.2 °F - 29.1 °F 96% 30.04 in 10.0 mi Calm Calm - N/A   Overcast
8:55 AM 31.1 °F - 29.3 °F 93% 30.05 in 10.0 mi Calm Calm - N/A   Overcast
9:14 AM 32.2 °F - 30.2 °F 92% 30.05 in 10.0 mi Calm Calm - N/A   Overcast
9:35 AM 34.0 °F - 30.2 °F 86% 30.05 in 10.0 mi Calm Calm - N/A   Overcast
9:55 AM 34.7 °F 29.6 °F 30.2 °F 84% 30.06 in 10.0 mi NNW 5.8 mph - N/A   Overcast
10:14 AM 35.1 °F 32.2 °F 30.2 °F 82% 30.06 in 10.0 mi North 3.5 mph - N/A   Overcast
10:35 AM 35.6 °F 32.8 °F 30.2 °F 81% 30.07 in 10.0 mi North 3.5 mph - N/A   Overcast
10:55 AM 35.8 °F 31.9 °F 30.0 °F 80% 30.07 in 10.0 mi NNW 4.6 mph - N/A   Overcast
11:14 AM 36.0 °F 32.1 °F 29.7 °F 78% 30.08 in 10.0 mi NNW 4.6 mph - N/A   Overcast
11:35 AM 36.5 °F 31.8 °F 29.7 °F 76% 30.08 in 10.0 mi NNW 5.8 mph - N/A   Overcast
11:54 AM 36.1 °F 30.6 °F 29.7 °F 77% 30.08 in 10.0 mi NNW 6.9 mph - N/A   Overcast
12:15 PM 36.3 °F - 29.5 °F 76% 30.08 in 10.0 mi Calm Calm - N/A   Overcast
12:35 PM 36.1 °F 31.4 °F 29.7 °F 77% 30.08 in 5.0 mi NNW 5.8 mph - N/A   Overcast
12:54 PM 36.0 °F 31.1 °F 31.1 °F 82% 30.08 in 10.0 mi NW 5.8 mph - N/A   Overcast
1:15 PM 36.9 °F 32.2 °F 29.3 °F 74% 30.08 in 10.0 mi NW 5.8 mph - N/A   Overcast
1:35 PM 37.4 °F 31.4 °F 28.4 °F 70% 30.08 in 10.0 mi WNW 8.1 mph - N/A   Overcast
1:55 PM 38.3 °F 33.9 °F 27.5 °F 65% 30.08 in 10.0 mi NW 5.8 mph - N/A   Overcast
2:15 PM 38.8 °F 33.8 °F 25.9 °F 60% 30.08 in 10.0 mi NW 6.9 mph - N/A   Overcast
2:34 PM 39.2 °F 34.2 °F 25.9 °F 59% 30.08 in 10.0 mi WNW 6.9 mph - N/A   Mostly Cloudy
2:55 PM 39.9 °F 34.5 °F 25.9 °F 57% 30.08 in 10.0 mi NW 8.1 mph 18.4 mph N/A   Scattered Clouds
3:15 PM 40.1 °F 34.7 °F 26.1 °F 57% 30.07 in 10.0 mi NW 8.1 mph 16.1 mph N/A   Mostly Cloudy
3:35 PM 40.5 °F 35.1 °F 24.4 °F 53% 30.07 in 10.0 mi NNW 8.1 mph - N/A   Scattered Clouds
3:55 PM 41.0 °F 33.9 °F 22.1 °F 47% 30.07 in 10.0 mi NW 12.7 mph 19.6 mph N/A   Scattered Clouds
4:14 PM 40.5 °F 33.6 °F 22.5 °F 49% 30.06 in 10.0 mi North 11.5 mph 16.1 mph N/A   Scattered Clouds
4:35 PM 41.0 °F 35.8 °F 22.5 °F 48% 30.07 in 10.0 mi NNW 8.1 mph - N/A   Scattered Clouds
4:54 PM 41.0 °F 33.9 °F 24.3 °F 51% 30.07 in 10.0 mi West 12.7 mph 20.7 mph N/A   Mostly Cloudy
5:15 PM 40.5 °F 36.5 °F 23.0 °F 50% 30.07 in 10.0 mi NNW 5.8 mph 17.3 mph N/A   Scattered Clouds
5:35 PM 40.1 °F 34.1 °F 22.3 °F 49% 30.08 in 10.0 mi NW 9.2 mph 18.4 mph N/A   Scattered Clouds
5:55 PM 40.3 °F 33.4 °F 22.3 °F 49% 30.08 in 10.0 mi NNW 11.5 mph 20.7 mph N/A   Clear
6:15 PM 40.3 °F 34.9 °F 22.3 °F 49% 30.08 in 10.0 mi NW 8.1 mph - N/A   Clear
6:34 PM 40.1 °F 35.3 °F 23.2 °F 51% 30.08 in 10.0 mi NNW 6.9 mph - N/A   Clear
6:55 PM 39.6 °F 35.4 °F 23.5 °F 53% 30.09 in 10.0 mi NW 5.8 mph - N/A   Clear
7:15 PM 38.5 °F 32.1 °F 24.8 °F 58% 30.09 in 10.0 mi NW 9.2 mph - N/A   Clear
7:35 PM 37.9 °F 34.4 °F 24.3 °F 58% 30.10 in 10.0 mi NW 4.6 mph - N/A   Clear
7:55 PM 37.4 °F 33.8 °F 23.0 °F 56% 30.10 in 10.0 mi NW 4.6 mph - N/A   Scattered Clouds
8:15 PM 36.7 °F 31.2 °F 22.6 °F 57% 30.11 in 10.0 mi NW 6.9 mph - N/A   Scattered Clouds
8:35 PM 36.3 °F 31.6 °F 22.8 °F 58% 30.11 in 10.0 mi NW 5.8 mph - N/A   Mostly Cloudy
8:55 PM 35.6 °F 31.7 °F 23.0 °F 60% 30.12 in 10.0 mi NW 4.6 mph - N/A   Mostly Cloudy
9:15 PM 35.2 °F 31.2 °F 23.0 °F 61% 30.12 in 10.0 mi NW 4.6 mph - N/A   Scattered Clouds
9:35 PM 34.7 °F 30.6 °F 23.5 °F 64% 30.13 in 10.0 mi NW 4.6 mph - N/A   Clear
9:54 PM 34.3 °F 30.2 °F 23.9 °F 66% 30.13 in 10.0 mi NNW 4.6 mph - N/A   Clear
10:15 PM 34.2 °F 29.0 °F 24.4 °F 68% 30.13 in 10.0 mi NNW 5.8 mph - N/A   Clear
10:35 PM 33.8 °F 30.8 °F 24.6 °F 69% 30.14 in 10.0 mi NW 3.5 mph - N/A   Clear
10:55 PM 33.6 °F 30.6 °F 24.8 °F 70% 30.13 in 10.0 mi WNW 3.5 mph - N/A   Clear
11:15 PM 33.3 °F 30.2 °F 24.8 °F 71% 30.13 in 10.0 mi NW 3.5 mph - N/A   Clear
11:35 PM 33.3 °F 30.2 °F 24.8 °F 71% 30.14 in 10.0 mi WNW 3.5 mph - N/A   Clear
11:54 PM 32.9 °F 29.8 °F 26.1 °F 76% 30.14 in 10.0 mi NW 3.5 mph - N/A   Clear